RH
77 80 79 77 78 79 78 77 76 75 75 75 74 75 74 73 72 70 71 74 77 76 80 79 75 76 47 20 36 34 48 38 28 32 32 29 22 18 18 17 23 24 19 22 22 25 24
77 80 82 82 81 82 80 78 77 75 76 75 73 74 74 73 71 71 73 78 77 77 78 72 76 78 28 20 37 34 33 29 32 30 30 30 31 29 23 20 23 25 25 23 22 23 22
79 81 82 84 85 84 84 80 79 76 75 75 74 74 74 72 71 71 76 78 78 77 73 68 74 38 27 43 34 30 28 34 34 36 33 36 37 34 26 23 26 28 28 21 23 24 22
81 82 83 83 86 88 87 84 81 78 75 76 74 74 73 73 73 78 81 79 77 72 69 69 69 32 38 36 35 29 30 27 30 33 38 38 38 34 32 28 24 24 23 20 20 26 25
83 84 85 85 86 88 88 88 84 80 77 77 75 74 73 74 79 81 82 80 70 65 62 60 37 28 32 34 28 31 35 38 34 33 37 32 32 32 28 27 34 20 24 18 18 23 24
87 88 89 90 90 89 89 89 86 83 79 78 77 76 74 77 80 83 83 75 61 47 35 33 24 33 26 29 34 36 33 38 38 36 37 34 30 26 25 27 49 24 19 13 16 23 27
89 89 90 91 91 92 91 91 90 85 82 80 79 78 76 78 79 81 62 34 35 38 33 40 40 36 31 33 35 34 38 38 32 28 24 32 30 31 17 20 22 22 19 16 13 20 30
91 91 91 92 92 92 92 92 92 90 87 84 82 79 74 74 77 78 46 44 48 55 60 45 41 44 37 41 36 36 34 30 27 23 28 31 33 24 28 26 25 24 25 23 18 20 28
92 92 91 91 92 92 92 93 93 92 90 87 84 79 75 75 76 56 53 61 62 58 67 49 38 42 39 44 38 39 36 37 30 24 25 27 21 32 34 32 32 24 23 20 21 22 23
93 92 92 92 92 93 94 94 94 93 92 89 85 77 74 76 58 48 53 60 61 58 82 94 40 42 44 45 41 45 43 40 36 31 30 29 28 31 31 33 30 41 29 28 32 36 43
90 91 95 93 93 94 94 94 95 94 94 91 87 77 70 72 51 44 54 56 62 60 99 63 41 43 47 51 41 48 45 41 30 25 31 37 31 39 39 31 28 31 40 36 37 46 49
86 88 91 95 96 97 96 95 95 95 95 94 90 82 74 55 49 48 55 58 60 79 100 69 39 43 44 41 38 46 49 41 39 37 34 33 37 40 29 38 37 36 35 36 47 54 79
86 85 89 90 92 92 93 97 96 96 96 95 92 87 74 50 56 66 63 56 94 100 47 51 39 40 36 36 37 42 42 44 38 58 45 33 37 35 40 39 42 43 36 74 77 84 48
81 84 86 90 92 93 91 89 93 98 97 98 97 91 74 62 72 72 69 87 100 81 65 37 37 40 47 40 40 40 44 45 30 34 38 50 87 40 38 36 34 43 36 70 72 49 33
79 80 86 89 90 90 89 90 90 89 97 99 92 96 92 89 82 81 93 100 95 77 55 42 48 59 57 40 38 39 40 38 30 36 41 36 39 40 44 39 35 41 56 36 50 29 43
75 78 82 82 88 90 91 91 90 91 94 91 97 96 93 90 87 93 99 96 83 59 40 51 90 75 72 52 44 41 39 32 38 35 29 32 41 40 49 48 46 47 34 54 51 72 51
72 70 74 80 84 89 91 90 90 92 96 88 97 100 98 85 88 97 100 94 76 57 42 66 85 90 66 61 46 46 43 35 37 45 38 38 38 45 51 54 39 53 46 46 52 53 73
70 70 66 73 84 87 88 91 88 94 91 89 97 100 96 89 99 98 99 86 72 57 49 53 58 70 65 55 51 53 51 38 39 42 47 38 43 52 36 37 44 44 40 36 56 50 55
72 71 68 71 79 85 88 89 90 93 87 93 99 98 96 97 100 98 88 85 70 62 58 56 67 66 61 67 84 67 56 41 47 46 42 42 50 64 50 47 46 53 45 45 39 42 52
74 74 72 73 75 83 87 89 92 92 85 84 94 100 100 99 95 91 94 92 86 69 68 57 66 63 71 73 61 62 65 50 52 51 60 53 50 52 54 42 44 52 47 50 50 62 49
74 74 73 72 74 80 82 87 90 92 86 83 93 92 82 100 98 96 87 93 96 98 78 66 92 80 84 95 75 74 62 53 60 64 63 54 78 57 48 43 41 44 43 44 56 53 62
75 73 74 72 73 79 81 87 89 89 87 92 96 91 87 90 75 97 97 99 96 82 95 89 80 80 82 95 63 64 63 57 58 56 66 95 97 79 90 67 55 62 51 50 50 47 50
76 76 74 73 74 75 81 86 90 89 92 99 92 81 76 80 88 97 94 91 90 73 93 69 76 73 94 74 59 54 64 66 68 66 89 95 91 76 82 50 69 89 54 49 46 44 46
77 75 76 74 75 75 75 81 88 89 88 83 91 92 96 90 94 90 79 76 85 77 82 88 71 84 71 58 64 72 81 91 94 94 87 99 91 87 90 89 89 37 36 39 46 43 38
77 77 74 72 74 76 77 77 84 89 88 91 92 93 96 94 66 66 76 77 80 81 94 96 89 77 60 80 95 89 81 79 70 71 92 98 93 92 78 61 44 39 44 45 45 42 34
73 71 72 75 75 75 77 80 84 88 85 94 93 92 95 96 81 60 83 97 98 99 99 99 96 90 92 97 94 89 66 51 55 59 58 69 100 95 87 84 60 44 39 32 43 51 34
70 72 74 75 76 76 79 84 87 88 87 90 97 92 96 100 92 94 97 95 93 97 95 87 94 98 99 94 90 77 66 46 50 50 67 69 78 91 78 86 53 39 32 36 54 38 32
74 74 76 76 77 80 84 85 86 89 89 91 99 91 91 96 97 96 86 90 85 79 83 85 85 97 93 94 86 83 64 55 47 37 48 51 59 67 65 91 80 28 33 49 33 30 28
75 77 78 79 80 82 83 86 89 88 86 86 98 89 89 96 99 88 60 58 53 59 72 70 82 64 60 81 90 77 63 57 46 54 44 58 46 52 50 54 24 22 24 23 24 27 27
Wind_Speed
5 3 2 3 5 6 8 9 10 11 12 13 14 14 15 16 16 17 17 15 14 14 12 10 9 11 5 1 4 7 13 8 5 6 5 5 5 4 7 3 3 8 4 3 3 4 5
8 7 7 6 5 5 6 7 8 9 11 12 13 15 16 18 19 19 17 17 15 11 6 6 9 12 3 1 2 7 10 6 8 7 5 6 5 5 7 5 6 5 6 7 5 6 5
9 9 9 9 8 7 7 7 8 9 10 12 13 15 17 19 20 21 19 19 16 7 3 3 7 5 2 6 3 7 8 4 6 6 4 5 5 5 5 4 3 6 8 8 9 6 5
11 10 10 9 9 7 7 8 8 9 10 11 13 15 17 19 21 22 21 20 11 3 3 5 5 4 4 2 3 7 10 1 4 3 2 1 2 4 4 3 4 6 6 8 7 5 4
12 11 10 10 10 9 8 8 8 8 10 11 13 15 17 19 21 23 22 17 4 5 3 5 3 4 3 3 2 6 6 7 6 1 1 2 2 1 3 5 5 6 9 8 4 5 1
13 12 10 10 9 10 10 8 7 8 9 9 10 13 15 17 19 22 24 10 4 4 5 3 1 4 4 5 5 5 4 4 3 3 3 3 3 5 5 5 4 8 8 7 10 4 7
14 12 11 10 10 10 11 10 9 9 8 8 9 12 14 17 19 19 14 4 5 3 8 5 11 5 4 8 1 4 4 3 2 5 4 2 5 7 8 4 8 8 11 14 8 1 7
14 14 13 12 11 11 11 12 11 10 9 7 6 8 12 15 18 16 8 6 4 5 10 2 2 4 2 4 3 3 6 3 3 3 2 5 7 4 1 4 6 8 11 13 12 3 6
15 15 14 13 13 13 12 12 12 11 10 8 7 7 11 13 12 4 7 5 3 2 6 2 1 3 2 3 3 3 6 2 4 4 4 8 4 0 4 5 8 10 12 12 10 6 12
16 16 15 15 14 13 12 12 12 12 11 9 7 5 9 15 3 3 3 2 3 3 4 5 2 3 1 3 2 2 2 3 3 4 4 8 3 5 7 9 6 9 4 6 8 6 5
7 5 12 16 15 13 13 13 14 13 12 11 8 4 2 7 5 4 3 2 1 5 6 3 3 1 1 3 5 4 1 2 6 4 3 3 3 6 8 7 5 3 3 4 5 7 7
5 5 7 3 6 13 15 16 15 15 14 13 12 10 5 2 2 2 2 1 3 1 7 1 2 1 3 4 3 1 3 3 3 5 8 14 2 4 7 1 4 2 3 4 2 3 6
6 5 5 6 6 5 3 12 17 16 16 15 15 13 6 1 1 3 1 2 1 4 3 1 1 1 3 5 4 4 3 5 7 5 5 3 9 3 4 6 4 7 6 3 4 4 6
6 6 7 8 6 8 6 5 6 11 14 15 12 16 3 0 1 1 0 1 5 4 6 2 1 4 6 6 6 2 5 7 13 11 8 5 4 7 9 8 4 12 9 4 6 4 2
9 7 8 9 9 8 7 6 5 4 5 8 19 2 3 3 4 1 2 3 4 5 3 2 2 6 12 3 4 4 6 13 4 10 7 4 3 3 2 1 3 6 7 3 6 9 6
8 10 10 7 8 9 8 7 6 4 5 19 5 4 3 6 4 2 2 5 5 5 2 1 6 4 6 10 3 3 4 3 2 4 2 4 7 1 5 3 5 5 2 3 5 5 7
12 11 9 13 9 8 8 7 6 7 15 14 3 3 3 8 4 1 5 6 6 7 7 6 7 7 9 10 9 10 7 3 2 3 5 2 5 3 3 10 11 7 7 6 4 3 4
14 12 14 12 10 10 8 7 7 13 18 5 2 2 7 6 3 1 4 6 3 5 8 6 4 9 12 6 6 7 11 9 2 6 5 6 6 11 16 1 4 10 13 14 7 7 5
15 13 12 12 12 8 10 8 7 21 18 4 3 2 3 2 4 4 2 5 4 7 7 7 8 11 8 6 6 13 10 2 4 7 5 7 7 6 6 3 5 7 11 11 13 8 13
17 14 11 11 13 10 8 10 9 23 18 3 3 4 3 3 1 2 5 6 6 6 7 7 4 8 9 9 12 7 7 5 4 8 2 4 12 12 11 8 2 5 9 11 14 10 11
17 18 15 12 15 13 12 10 11 22 19 4 3 4 5 6 7 6 6 2 4 6 8 9 5 16 9 7 13 15 16 14 8 5 5 7 12 17 20 20 15 15 13 12 15 16 17
19 18 17 15 15 15 13 14 12 20 20 5 5 5 3 2 5 15 13 7 11 8 9 7 14 13 16 13 13 3 13 12 13 9 10 4 6 10 17 16 17 20 20 20 21 20 20
21 20 18 18 16 14 13 13 14 14 18 2 2 1 3 5 6 7 7 12 12 12 9 15 14 15 15 20 18 13 4 6 5 5 9 4 5 9 20 18 9 16 18 25 22 20 19
23 21 18 18 17 17 15 15 16 18 25 4 3 3 3 7 8 9 10 15 21 20 18 4 14 11 2 9 9 2 2 5 6 8 7 4 13 6 2 2 12 5 4 5 12 5 4
22 20 19 18 17 17 18 20 22 21 24 9 4 4 4 8 11 16 18 17 12 10 10 4 4 0 6 4 3 4 5 6 11 14 13 7 5 3 7 12 14 9 5 5 7 5 3
24 21 21 20 20 20 22 21 23 22 22 12 4 2 4 2 11 15 11 8 6 5 3 3 2 3 1 3 4 7 7 5 5 4 3 8 8 7 6 6 11 5 6 2 3 8 6
25 23 22 21 21 22 22 23 23 21 22 11 3 3 3 3 2 5 5 6 6 4 2 5 6 3 1 5 7 6 7 4 7 7 7 5 8 14 13 10 7 7 6 2 7 2 8
27 25 24 24 24 25 23 23 23 23 24 12 2 1 5 3 3 3 3 5 4 8 6 6 5 4 4 6 5 4 5 7 6 7 5 9 6 6 9 6 11 3 4 5 7 10 9
27 27 25 25 26 25 23 24 23 23 19 14 4 2 3 6 3 2 1 4 4 4 4 9 1 4 4 5 4 2 4 3 7 6 3 6 5 3 4 2 4 3 6 6 6 9 5
Wind_Direction
289 295 273 296 329 349 358 4 3 359 359 359 357 355 348 343 340 339 336 334 332 335 336 335 331 327 273 168 71 3 343 350 348 349 7 346 291 305 264 283 259 254 289 263 261 259 259
277 282 276 284 299 321 342 354 356 355 356 356 355 350 346 343 337 336 335 332 331 329 331 330 331 317 287 277 19 355 348 355 6 355 14 356 358 334 300 279 260 1 282 275 259 253 243
270 276 282 280 286 302 322 335 342 346 352 351 351 349 346 342 337 333 336 334 328 316 303 332 331 315 23 56 344 351 344 2 352 12 3 27 343 295 344 267 315 283 278 236 237 236 251
257 267 275 284 289 292 303 315 326 336 342 345 346 347 346 341 336 332 333 335 328 312 315 320 314 287 73 93 333 1 348 308 11 8 3 19 333 305 294 333 257 269 259 260 120 189 162
257 261 267 276 284 284 284 295 309 322 330 339 344 346 346 342 336 331 329 329 306 309 266 279 248 319 87 154 341 354 8 338 318 326 308 276 255 308 202 247 290 233 281 246 203 209 213
248 255 258 263 271 282 279 279 285 300 311 327 338 338 341 337 336 332 327 312 278 231 220 215 158 264 103 351 331 331 12 336 328 294 226 239 244 245 225 228 248 310 259 261 278 131 234
243 246 251 258 267 273 275 275 274 282 292 308 329 335 341 339 339 335 332 301 319 174 13 334 324 266 335 336 261 2 3 305 215 231 285 93 262 253 318 296 310 288 286 285 283 87 287
242 245 244 247 251 258 263 267 264 264 271 280 302 327 340 337 335 321 335 42 35 345 309 116 308 284 304 337 285 41 327 292 277 295 281 236 260 60 323 275 261 258 268 274 281 255 272
242 244 247 248 245 245 250 254 259 261 263 274 291 325 333 330 326 333 45 43 342 295 269 86 21 314 8 307 330 3 347 330 335 291 286 276 344 246 246 239 257 254 261 276 282 310 252
242 247 247 247 244 246 246 247 249 250 248 250 263 305 333 319 291 352 36 16 290 268 313 286 116 85 226 303 245 15 19 336 213 295 302 278 68 262 259 261 256 276 10 279 273 271 266
53 27 261 247 244 245 245 246 244 244 241 235 231 226 309 2 320 300 33 330 255 249 331 240 132 70 268 274 334 155 58 221 268 269 230 261 235 242 250 254 227 295 332 284 284 270 311
304 332 43 53 275 244 245 246 243 240 236 225 208 187 179 225 241 60 62 285 255 300 252 166 150 189 254 187 198 149 238 223 319 280 241 269 68 251 251 99 261 37 247 230 225 243 245
286 292 303 322 273 265 298 260 244 233 234 223 204 168 182 24 222 124 51 263 5 207 328 97 327 248 308 284 258 215 215 220 256 286 247 223 220 176 214 212 180 217 241 275 237 209 253
273 270 246 254 244 272 279 316 340 260 240 230 184 148 169 99 86 218 33 70 201 189 247 35 316 270 272 320 275 252 279 270 230 248 288 271 264 199 174 232 321 202 224 240 277 246 343
298 289 282 249 242 242 259 266 294 337 319 136 122 78 149 192 157 76 115 198 220 214 232 230 300 273 272 207 256 282 244 267 306 201 225 280 240 125 223 269 275 136 220 350 284 255 274
296 298 293 302 270 230 233 230 255 264 130 140 114 156 213 147 116 95 149 218 236 235 165 115 194 268 261 295 227 226 270 83 258 241 212 15 286 161 117 215 216 254 18 191 211 256 252
291 291 300 305 292 279 247 232 222 156 159 143 97 186 124 137 103 286 185 216 245 244 187 205 204 235 255 280 252 265 260 212 232 159 215 324 221 155 180 205 217 185 221 220 299 254 273
269 274 287 289 303 298 272 253 189 152 140 106 136 216 148 163 134 193 196 191 189 221 216 231 260 231 251 263 250 254 245 229 159 190 202 215 290 266 262 133 296 277 232 220 223 213 221
267 257 261 283 291 277 284 251 224 154 159 140 142 98 158 276 227 185 234 259 243 195 208 186 223 221 217 218 237 236 266 47 212 227 236 184 221 263 269 199 219 234 222 243 244 264 238
275 259 254 257 272 261 265 258 235 171 174 134 145 160 141 221 320 190 173 236 224 210 248 212 240 201 218 232 219 249 240 235 210 236 295 233 245 234 252 304 333 206 227 225 228 237 252
263 265 258 258 268 264 249 250 233 184 176 150 170 223 180 188 209 209 214 230 198 199 230 219 216 217 204 247 233 241 256 259 202 190 211 248 252 249 257 265 256 257 250 235 235 248 253
255 256 258 255 259 261 256 244 231 191 184 201 160 174 193 265 196 196 207 212 216 218 183 216 237 204 218 232 226 279 247 240 234 208 212 189 278 259 262 257 254 256 252 254 253 252 258
254 249 249 254 250 259 264 256 232 203 179 182 119 133 222 186 187 187 197 218 226 220 211 228 216 241 232 233 249 280 289 319 318 245 211 217 238 257 264 257 283 258 243 242 249 245 245
259 253 245 247 251 247 254 265 251 235 194 180 164 131 182 236 204 218 248 222 230 225 230 237 232 228 341 86 87 83 289 246 242 238 236 230 216 234 297 134 246 262 76 258 247 293 343
259 253 251 250 252 251 252 256 254 243 208 209 150 172 155 243 242 243 241 243 249 249 230 205 179 225 175 127 218 222 212 237 224 222 208 214 266 267 253 244 268 208 172 159 194 185 164
261 257 254 251 249 252 251 246 246 242 222 204 189 153 148 191 232 239 234 211 214 192 133 152 72 58 154 192 202 226 221 231 183 186 248 230 220 249 215 245 251 76 108 84 148 254 145
261 261 257 257 252 255 249 243 240 237 229 196 164 194 135 166 196 134 200 186 170 167 184 140 163 164 186 199 217 220 229 208 226 221 174 181 221 242 240 254 257 110 129 171 210 90 138
258 258 256 256 255 252 245 243 241 235 227 189 117 202 181 156 125 163 209 181 157 194 189 123 138 186 173 229 229 178 238 197 256 234 194 202 210 211 227 253 247 156 134 228 97 121 128
256 254 254 253 252 248 251 245 233 234 193 143 130 119 49 90 76 171 57 25 352 8 177 183 116 146 196 220 212 216 208 181 231 240 148 237 239 300 295 2 83 86 86 103 134 139 131